Weather History for Wolf Point, MT

Change the Weather History Date:

Sunday, May 5, 2013

  Actual Average Record
Temperature  
Mean Temperature 50 °F -  
Max Temperature 69 °F 67 °F 73 °F (2008)
Min Temperature 30 °F 35 °F 21 °F (2006)
Degree Days  
Heating Degree Days 15    
Cooling Degree Days 0    
Moisture  
Dew Point 27 °F    
Average Humidity 42    
Maximum Humidity 76    
Minimum Humidity 21    
Precipitation  
Precipitation 0.00 in 0.04 in 1.11 in (2003)
Month to date precipitation 0.00 0.18  
Year to date precipitation 0.98 2.10  
Sea Level Pressure  
Sea Level Pressure 30.21 in    
Wind  
Wind Speed 3 mph (ESE)    
Max Wind Speed 10 mph    
Max Gust Speed -    
Visibility 10 miles    
Events      
T = Trace of Precipitation, MM = Missing Value Source: NWS Daily Summary

Daily Weather History Graph

Daily Weather History Graph

Search for Another Location

Airport:

Trip Planner

Search our weather history database for the weather conditions in past years. The results will help you decide how hot, cold, wet, or windy it might be!

Date:

Astronomy

May. 05, 2013 Rise Set
Actual Time 5:37 AM MDT 8:21 PM MDT
Civil Twilight 5:01 AM MDT 8:57 PM MDT
Nautical Twilight 4:16 AM MDT 9:42 PM MDT
Astronomical Twilight 3:22 AM MDT 10:37 PM MDT
Moon 3:28 AM MDT (5/5) 4:07 PM MDT (5/5)
Length of Visible Light 15h 55m
Length of Day
14h 44m
Waning Crescent, 17% of the Moon is Illuminated
May 5
Waning Crescent
May 9
New
May 17
First Quarter
May 24
Full
May 31
Last Quarter

Hourly Weather History & Observations

Time (MDT) Temp. Windchill Dew Point Humidity Pressure Visibility Wind Dir Wind Speed Gust Speed Precip Events Conditions
12:53 AM 39.9 °F 36.7 °F 25.0 °F 55% 30.30 in 10.0 mi NNE 4.6 mph - N/A   Clear
1:53 AM 37.9 °F 35.5 °F 25.0 °F 60% 30.30 in 10.0 mi NNE 3.5 mph - N/A   Clear
2:53 AM 37.9 °F - 25.0 °F 60% 30.30 in 10.0 mi Calm Calm - N/A   Clear
3:53 AM 33.1 °F - 25.0 °F 72% 30.30 in 10.0 mi Calm Calm - N/A   Clear
4:53 AM 33.1 °F - 25.0 °F 72% 30.30 in 10.0 mi Calm Calm - N/A   Clear
5:53 AM 30.0 °F - 23.0 °F 75% 30.30 in 10.0 mi Calm Calm - N/A   Clear
6:53 AM 35.1 °F - 28.0 °F 76% 30.29 in 10.0 mi Calm Calm - N/A   Clear
7:53 AM 43.0 °F - 28.9 °F 58% 30.29 in 10.0 mi Calm Calm - N/A   Clear
8:53 AM 52.0 °F - 26.1 °F 37% 30.29 in 10.0 mi Calm Calm - N/A   Clear
9:53 AM 57.9 °F - 24.1 °F 27% 30.27 in 10.0 mi Variable 3.5 mph - N/A   Clear
10:53 AM 63.0 °F - 25.0 °F 24% 30.26 in 10.0 mi ESE 4.6 mph - N/A   Clear
11:53 AM 64.4 °F - 26.6 °F 24% 30.22 in 10.0 mi SE 4.6 mph - N/A   Clear
12:53 PM 66.0 °F - 28.0 °F 24% 30.22 in 10.0 mi ESE 10.4 mph - N/A   Clear
1:53 PM 66.9 °F - 27.0 °F 22% 30.19 in 10.0 mi SSE 8.1 mph - N/A   Clear
2:53 PM 66.9 °F - 26.1 °F 21% 30.17 in 10.0 mi Calm Calm - N/A   Clear
3:53 PM 69.1 °F - 27.0 °F 21% 30.14 in 10.0 mi Calm Calm - N/A   Clear
4:53 PM 69.1 °F - 28.0 °F 22% 30.12 in 10.0 mi South 8.1 mph - N/A   Clear
5:53 PM 68.0 °F - 27.0 °F 21% 30.11 in 10.0 mi Variable 4.6 mph - N/A   Clear
6:53 PM 66.9 °F - 27.0 °F 22% 30.09 in 10.0 mi South 4.6 mph - N/A   Clear
7:53 PM 64.0 °F - 26.1 °F 24% 30.09 in 8.0 mi Calm Calm - N/A   Clear
8:53 PM 57.0 °F - 26.1 °F 30% 30.09 in 10.0 mi Calm Calm - N/A   Clear
9:53 PM 46.0 °F 43.9 °F 30.0 °F 54% 30.11 in 10.0 mi North 4.6 mph - N/A   Clear
10:53 PM 46.9 °F - 28.9 °F 50% 30.10 in 10.0 mi NNE 3.5 mph - N/A   Clear
11:53 PM 44.1 °F - 28.9 °F 55% 30.10 in 10.0 mi Calm Calm - N/A   Clear